SOLRAD 11A/B AKM, 8753

Orbit data source: Space-Track

SOLRAD 11A/B AKM, 8753 is space debris originally from a launch on Mon, 15 Mar 1976 UTC launched from the Air Force Eastern Test Range (AFETR). Debris objects in space refer to the collection of defunct objects orbiting the Earth. Examples of debris include non-operational satellites, rocket bodies, and fragments generated from explosions, collisions, or faulty payload assembly.

Loading next visibility...
Identifier
8753, 1976-023H
Orbit
Active
Country
Flag of USUS
Related business
Manufacturer
Thiokol/TE
Mission
Spacecraft
Bus & Motor
STAR 13A, Unknown motor
Mass
10 kg wet, 10 kg dry
Launch date (UTC)
1976-03-15 (51 years ago)
Launch vehicle
Unknown
Launch site
Air Force Eastern Test Range (AFETR)
Object type
Payload
Rocket body
Debris
Shape & HBR
SPHERE + CONE, 4.1 m
Radar Cross Section
RCS unknown

Expand to show TLE details & history
Last TLE update: in 1 day

TLE from in 1 day
0 SOLRAD 11A/B AKM
1 08753U 76023H   26266.09218241 -.00000825  00000-0  00000-0 0  9996
2 08753  11.6709 357.8988 0306261  90.3290 357.5308  0.18717149  5596
Epoch: 2026-09-23T02:12Z
TLE epoch observation values (Epoch: 2026-09-23T02:12:44.560Z)
Latitude
11.59649°
Longitude
50.29147°
Altitude
118,875.021 km
Speed
1.81 km/s
True Right ascension
05h 41m 42s
True Declination
11° 35' 34"
Sunlit
Object was in daylight at epoch
Visualization orbit readout
Latitude
Unknown
Longitude
Unknown
Altitude
Unknown
Speed
Unknown
Apparent Right ascension
Unknown
Apparent Declination
Unknown
Sunlit
N/A
Visualization observer readout
Local Sidereal Time
13:10:53
Azimuth
Unknown
Elevation
Unknown
Doppler factor
Unknown
Orbital elements
Apogee altitude
126,670.733 km
Perigee altitude
118,763.369 km
Semi-major axis
129,095.188 km
Eccentricity
0.03063
Inclination
11.6709°
RAAN
357.8988°
Arg. of periapsis
90.329°
True anomaly
357.3736°
Mean anomaly
357.5308°
Eccentric anomaly
357.45282°
Mean motion
0.04679 °/min
Orbital period
7,693.51 mins
BSTAR
0
Loading maneuver chart data...
Computing Atmospheric mass density...
Loading historical data...
Loading historical data...
Loading historical data...
Loading historical data...
Loading historical data...
Loading historical data...
Loading historical data...

Documentation

Showing up to 5 results
|